Regional Weather Roundup
Issued by NWS Portland, ME

Home | Current Version | Previous Version | Text Only | Print | Product List | Glossary On
Versions: 1 2 3 4 5 6 7 8 9 10 11 12 13 14 15 16 17 18 19 20 21 22 23 24 25 26 27 28 29 30 31 32 33 34 35 36 37 38 39 40 41 42 43 44 45 46 47 48 49 50
000
ASUS41 KGYX 041110
RWRGYX
WEATHER ROUNDUP FOR MAINE AND NEW HAMPSHIRE
NATIONAL WEATHER SERVICE GRAY ME
600 AM EST WED MAR 04 2015

MEZ002-005-006-010-012-015-018-020-021-024-026-027-029-041200-
MAINE

CITY           SKY/WX    TMP DP  RH WIND       PRES   REMARKS
PORTLAND       CLOUDY    31  28  89 SW10      29.60S
SANFORD        CLOUDY    27  25  93 S3        29.61R
BAR HARBOR     CLOUDY    34  34 100 SW6       29.56F
WISCASSET      CLOUDY    33  31  92 CALM      29.60R
ROCKLAND       CLOUDY    34  32  93 W12       29.57S
FRYEBURG       CLOUDY    23  21  92 CALM      29.56R
LEWISTONAUBURN CLOUDY    27  23  86 CALM      29.57R
AUGUSTA        CLOUDY    28  25  88 SW3       29.56F
WATERVILLE     CLOUDY    28  23  80 SW5       29.54S
BANGOR         CLOUDY    33  30  88 CALM      29.56F
GREENVILLE       N/A     21  20  96 S3        29.46R
MILLINOCKET    CLOUDY    28  24  85 VRB6      29.53F
HOULTON        CLOUDY    27  24  89 SW7       29.49F
PRESQUE ISLE   CLOUDY    27  19  74 S8        29.46F
FRENCHVILLE    LGT SNOW  18  15  88 S6        29.42F FOG
CARIBOU        FLURRIES  22  19  89 S3        29.46R
$$

NHZ002-005-008-009-011-012-014-041200-
NEW HAMPSHIRE

CITY           SKY/WX    TMP DP  RH WIND       PRES   REMARKS
PORTSMOUTH     CLOUDY    33  31  92 W3        29.60R
ROCHESTER      CLOUDY    28  26  92 CALM      29.60R
NASHUA         CLOUDY    33  32  96 CALM      29.65R
MANCHESTER     CLOUDY    34  33  96 SW5       29.62R
CONCORD        CLOUDY    27  25  92 CALM      29.63R
LACONIA        CLOUDY    27  23  86 W7        29.59R
PLYMOUTH       CLOUDY    24  24 100 CALM      29.61R
BERLIN         CLOUDY    28  23  81 N5        29.55R
WHITEFIELD     CLOUDY    30  25  81 VRB3      29.59R
JAFFREY        CLOUDY    34  31  88 SW9       29.62R
KEENE          CLOUDY    34  30  86 SW7       29.66R
LEBANON        FLURRIES  28  24  85 VRB3      29.62R
MT WASHINGTON  BLWGSNOW  12  12 100 W77         N/A  VSB 0   WCI -18
$$

VTZ005-007-008-041200-
VERMONT

CITY           SKY/WX    TMP DP  RH WIND       PRES   REMARKS
ST JOHNSBURY     N/A     27  24  89 MISG      29.59R
MONTPELIER     CLOUDY    31  25  78 VRB3      29.63R
BURLINGTON     CLOUDY    32  26  78 W3        29.65R
$$

MAZ007-012-024-CTZ003-RIZ002-NYZ038-NYZ072-041200-
SOUTHERN NEW ENGLAND AND NY

CITY           SKY/WX    TMP DP  RH WIND       PRES   REMARKS
BOSTON         CLOUDY    37  34  89 SW12      29.67R
WORCESTER      CLOUDY    35  32  88 W21G29    29.63R
NANTUCKET      CLOUDY    37  35  92 W22G32    29.74R
PROVIDENCE     LGT RAIN  37  33  85 SW12      29.72R
HARTFORD       CLOUDY    36  32  85 S8        29.73R
ALBANY         CLOUDY    33  28  81 E3        29.75R
NEW YORK CITY  LGT RAIN  37  32  82 SW8       29.80R
$$

ANZ081-ANZ082-ANZ150-NHZ014-MEZ023>029-041200-
COASTAL MARINE OBSERVATIONS

STATION/POSITION TIME  TEMP    WIND        PRES    WAVE
                       AIR SEA DIR/SP/G            HT/PER
                 (UTC) (F)     (DEG/KT/KT) (MB)    (FT/S)
MOUNT DESERT ROC 1100   38                 1000.4F
MATINICUS ROCK   1000   38     250/ 23/ 26 1001.6F
WELLS            1000   30     310/  2/  3 1001.9F
ISLE OF SHOALS   1000   35     220/ 20/ 22 1002.0S
JEFFREYS LEDGE   1021      40                N/A     6/ 8
CASHES LEDGE BUO 1050   40 40              1001.6S   9/ 8
$$

.............KEY..............
   WCI - WIND CHILL
   TC  - TEMPERATURE IN CELSIUS
   VSB - VISIBILITY IN MILES
   HX  - HEAT INDEX
   FAIR- INDICATES FEW OR NO CLOUDS BELOW 12,000 FT, WITH NO
         SIGNIFICANT WEATHER AND/OR OBSTRUCTIONS TO VISIBILITY.





USA.gov is the U.S. government's official web portal to all federal, state and local government web resources and services.